GALAXY 19 (G-19)

Last updated on Fri Jul 11 2025 00:02:42 GMT+0000 (Coordinated Universal Time)

1 33376U 08045A 25191.52405727 -.00000126 00000+0 00000+0 0 9997 2 33376 0.0487 254.2019 0003044 212.3362 273.8079 1.00271702 61470
UTC large
Height (km)
Speed (km/s)
/
Latitude / Longitude
Inclination (degrees)
Orbital Period (minutes)
Azimuth
Elevation
Range (km)
Doppler Factor

Next 0 passes for location: London (51.5072 / 0.1276)

Sorry there are no passes over London.